DateTimeUTC,F1_A11,F1_S11,BsB_S11,BsG_S11,BsR_S11,BbsB_S11,BbsG_S11,BbsR_S11,BaB_A11,BaG_A11,BaR_A11,Tu_S11,T_S11,Uu_S11,U_S11,P_S11,T1_A11
2021-06-11T02:00:00Z,00000200,20000000,,,,,,,-000.53,0000.11,-000.07,17.0,24.1,04.0,02.6,0662.2,31.0
2021-06-11T02:01:00Z,00000200,20000000,,,,,,,0000.01,-000.24,-000.20,17.0,24.1,04.0,02.6,0662.2,30.9
2021-06-11T02:02:00Z,00000200,20000000,,,,,,,0000.04,0000.53,0000.08,17.0,24.1,04.0,02.6,0662.2,30.9
2021-06-11T02:03:00Z,00000200,60000000,,,,,,,0000.49,0000.29,0000.09,17.0,24.1,04.0,02.6,0662.2,30.9
2021-06-11T02:04:00Z,00000200,40000000,0000.61,0000.65,0000.30,0000.32,0000.35,0000.10,0000.45,0000.47,0000.37,17.1,23.9,04.0,02.7,0663.1,30.9
2021-06-11T02:05:00Z,00000200,00000000,0000.15,0000.76,0000.18,0000.29,0000.16,-000.06,0000.15,-000.01,0000.17,17.2,23.8,04.1,02.7,0663.2,30.9
2021-06-11T02:06:00Z,00000200,00000000,0001.18,0000.47,0000.25,-000.30,0000.14,0000.04,-000.09,-000.06,0000.17,17.1,23.8,04.1,02.7,0663.2,30.9
2021-06-11T02:07:00Z,00000200,00000000,0001.35,0000.96,0000.29,0000.07,-000.00,-000.01,0000.41,0000.02,0000.22,17.1,23.8,04.1,02.7,0663.2,30.9
2021-06-11T02:08:00Z,00000200,00000000,0001.40,0000.62,0000.36,-000.07,0000.28,0000.17,0000.30,0000.52,0000.06,17.2,23.8,04.2,02.8,0663.3,30.9
2021-06-11T02:09:00Z,00000200,00000000,0001.50,0000.55,0000.72,0000.45,-000.06,0000.60,0000.05,-000.05,-000.16,17.2,23.8,04.1,02.7,0663.2,31.0
2021-06-11T02:10:00Z,00000200,00000000,0001.03,0000.74,0000.61,0000.14,0000.32,0000.21,0000.13,0000.35,0000.59,17.1,23.8,04.2,02.8,0663.2,31.0
2021-06-11T02:11:00Z,00000200,00000000,0001.19,0001.08,0000.49,-000.32,0000.00,0000.28,0000.07,0000.23,-000.10,17.1,23.8,04.1,02.7,0663.3,30.9
2021-06-11T02:12:00Z,00000200,00000000,0000.89,0000.71,0000.33,-000.05,0000.16,0000.13,0000.69,0000.35,0000.64,17.1,23.7,04.0,02.7,0663.2,30.9
2021-06-11T02:13:00Z,00000200,00000000,0001.08,0000.50,0000.50,0000.03,0000.19,0000.12,-000.09,0000.22,-000.20,17.1,23.7,04.1,02.7,0663.2,30.9
2021-06-11T02:14:00Z,00000200,00000000,0001.33,0000.77,0000.43,0000.33,0000.01,0000.24,0000.76,0000.18,0000.22,17.1,23.7,04.1,02.7,0663.2,30.9
2021-06-11T02:15:00Z,00000200,00000000,0001.48,0000.29,-000.05,-000.23,0000.21,0000.04,-000.03,0000.23,0000.15,17.1,23.7,04.1,02.7,0663.2,30.9
2021-06-11T02:16:00Z,00000200,00000000,0001.37,0000.68,0000.45,-000.16,0000.07,0000.18,0000.30,0000.29,0000.38,17.1,23.7,04.1,02.7,0663.2,30.9
2021-06-11T02:17:00Z,00000200,00000000,0000.77,0000.65,0000.40,0000.22,0000.17,0000.04,-000.12,0000.06,0000.04,17.1,23.7,04.1,02.7,0663.2,30.9
2021-06-11T02:18:00Z,00000200,00000000,0000.81,0000.64,0000.26,0000.14,0000.14,0000.15,0000.46,0000.14,0000.12,17.1,23.7,04.0,02.7,0663.2,30.9
2021-06-11T02:19:00Z,00000200,00000000,0001.70,0000.78,0000.42,0000.25,-000.03,0000.01,0000.23,0000.22,0000.27,17.1,23.7,04.0,02.7,0663.2,30.9
2021-06-11T02:20:00Z,00000200,00000000,0001.14,0000.52,0000.07,0000.07,0000.24,0000.03,0000.16,0000.06,0000.09,17.1,23.6,03.9,02.6,0663.2,30.9
2021-06-11T02:21:00Z,00000200,00000000,0001.23,0000.23,0000.37,0000.08,-000.28,0000.00,0000.34,0000.47,-000.04,17.1,23.7,04.0,02.7,0663.2,30.9
2021-06-11T02:22:00Z,00000200,00000000,0000.90,0000.85,0000.31,0000.29,0000.51,0000.10,-000.15,0000.21,0000.10,17.1,23.6,04.0,02.7,0663.2,30.9
2021-06-11T02:23:00Z,00000200,00000000,0001.34,0000.62,0000.35,-000.39,0000.15,0000.39,0000.16,-000.41,-000.19,17.1,23.7,04.0,02.7,0663.2,30.9
2021-06-11T02:24:00Z,00000200,00000000,0001.86,0000.61,0000.23,0000.51,0000.35,0000.06,0000.46,0000.43,0000.61,17.1,23.7,04.0,02.7,0663.2,30.9
2021-06-11T02:25:00Z,00000200,00000000,0001.15,0000.54,0000.37,-000.01,0000.25,-000.09,-000.17,0000.39,-000.04,17.1,23.6,04.0,02.7,0663.2,30.9
2021-06-11T02:26:00Z,00000200,00000000,0000.85,0000.59,0000.23,0000.48,-000.01,-000.09,0000.24,-000.18,0000.43,17.1,23.6,04.0,02.6,0663.2,30.9
2021-06-11T02:27:00Z,00000200,00000000,0001.20,0000.65,0000.31,0000.46,0000.19,-000.04,0000.27,0000.17,-000.21,17.1,23.6,03.8,02.6,0663.2,30.9
2021-06-11T02:28:00Z,00000200,00000000,0001.00,0000.54,0000.35,0000.29,-000.07,0000.13,0000.12,0000.11,0000.22,17.1,23.6,03.8,02.5,0663.2,30.9
2021-06-11T02:29:00Z,00000200,00000000,0001.03,0000.96,0000.34,0000.25,0000.03,0000.53,-000.12,0000.11,-000.48,17.1,23.6,03.7,02.5,0663.2,30.9
2021-06-11T02:30:00Z,00000200,00000000,0000.84,0000.76,0000.60,0000.02,0000.18,0000.30,0000.36,0000.00,0000.74,17.1,23.6,03.6,02.4,0663.2,30.9
2021-06-11T02:31:00Z,00000200,00000000,0001.13,0000.73,0000.41,0000.35,0000.26,0000.18,0000.20,0000.23,-000.26,17.1,23.6,03.6,02.4,0663.2,30.9
2021-06-11T02:32:00Z,00000200,00000000,0001.70,0000.73,0000.21,0000.43,0000.04,0000.00,0000.13,-000.01,0000.29,17.1,23.6,03.6,02.4,0663.2,30.9
2021-06-11T02:33:00Z,00000200,00000000,0001.29,0000.72,0000.52,0000.12,0000.05,0000.56,-000.02,0000.30,-000.03,17.0,23.5,03.5,02.4,0663.2,30.9
2021-06-11T02:34:00Z,00000200,00000000,0001.39,0000.83,0000.38,0000.09,0000.05,0000.16,0000.05,0000.05,0000.31,17.0,23.5,03.5,02.3,0663.2,30.9
2021-06-11T02:35:00Z,00000200,00000000,0000.67,0000.64,0000.42,0000.22,0000.08,0000.39,0000.30,0000.22,-000.07,17.0,23.5,03.5,02.3,0663.2,30.9
2021-06-11T02:36:00Z,00000200,00000000,0001.00,0000.84,0000.34,0000.16,0000.25,0000.23,-000.07,-000.12,0000.07,17.0,23.5,03.4,02.3,0663.2,30.9
2021-06-11T02:37:00Z,00000200,00000000,0000.82,0000.67,0000.54,0000.24,0000.00,0000.24,0000.54,0000.28,-000.09,17.0,23.5,03.4,02.3,0663.2,30.9
2021-06-11T02:38:00Z,00000200,00000000,0001.02,0000.55,0000.24,0000.09,0000.23,0000.43,-000.19,0000.15,0000.06,17.0,23.5,03.3,02.2,0663.2,30.9
2021-06-11T02:39:00Z,00000200,00000000,0001.67,0000.77,0000.57,0000.10,0000.13,0000.30,-000.04,0000.06,0000.35,17.0,23.5,03.3,02.2,0663.2,30.9
2021-06-11T02:40:00Z,00000200,00000000,0001.30,0000.78,0000.51,0000.39,0000.08,0000.28,0000.32,-000.42,-000.27,17.0,23.5,03.3,02.2,0663.2,30.9
2021-06-11T02:41:00Z,00000200,00000000,0000.72,0000.66,0000.49,0000.16,0000.15,0000.23,0000.13,0000.26,0000.01,16.9,23.5,03.2,02.1,0663.2,30.9
2021-06-11T02:42:00Z,00000200,00000000,0001.97,0000.67,0000.25,-000.30,0000.08,-000.01,-000.11,0000.13,0000.62,16.9,23.4,03.2,02.1,0663.2,30.9
2021-06-11T02:43:00Z,00000200,00000000,0001.41,0000.54,0000.41,0000.16,0000.08,0000.21,0000.16,0000.23,-000.04,16.9,23.4,03.2,02.1,0663.2,30.9
2021-06-11T02:44:00Z,00000200,00000000,0000.97,0000.31,0000.37,0000.30,-000.04,0000.11,0000.47,0000.26,0000.13,16.9,23.4,03.2,02.1,0663.2,30.9
2021-06-11T02:45:00Z,00000200,00000000,0000.26,0000.68,0000.31,0000.64,0000.19,0000.37,0000.04,0000.12,0000.00,16.9,23.4,03.1,02.1,0663.1,30.9
2021-06-11T02:46:00Z,00000200,00000000,0000.93,0000.71,0000.33,0000.22,0000.26,0000.15,0000.19,0000.16,0000.37,16.9,23.4,03.1,02.1,0663.2,30.9
2021-06-11T02:47:00Z,00000200,00000000,0001.06,0001.05,0000.31,-000.37,0000.27,0000.17,0000.15,-000.11,-000.33,16.9,23.4,03.1,02.1,0663.1,30.9
2021-06-11T02:48:00Z,00000200,00000000,0001.62,0000.99,0000.53,0000.63,0000.17,0000.33,0000.17,0000.68,0000.29,16.8,23.4,03.1,02.0,0663.1,30.9
2021-06-11T02:49:00Z,00000200,00000000,0001.28,0000.47,0000.45,0000.16,-000.01,0000.32,-000.01,-000.20,-000.03,16.8,23.4,03.1,02.1,0663.1,30.9
2021-06-11T02:50:00Z,00000200,00000000,0001.06,0000.53,0000.15,0000.23,0000.09,0000.11,0000.19,0000.30,0000.12,16.8,23.3,03.1,02.1,0663.1,30.9
2021-06-11T02:51:00Z,00000200,00000000,0001.67,0000.54,0000.49,0000.08,0000.14,0000.06,0000.23,0000.14,0000.58,16.8,23.3,03.0,02.0,0663.1,30.9
2021-06-11T02:52:00Z,00000200,00000000,0001.31,0000.65,0000.41,-000.02,0000.30,0000.37,0000.38,0000.26,-000.34,16.8,23.3,03.1,02.1,0663.1,30.9
2021-06-11T02:53:00Z,00000200,00000000,0000.64,0000.58,0000.28,0000.20,0000.13,0000.36,0000.15,0000.30,0000.61,16.8,23.3,03.1,02.1,0663.1,30.9
2021-06-11T02:54:00Z,00000200,00000000,0001.16,0000.42,0000.01,-000.17,0000.07,0000.18,0000.24,0000.25,-000.03,16.8,23.3,03.1,02.1,0663.1,30.9
2021-06-11T02:55:00Z,00000200,00000000,0000.76,0000.38,0000.31,0000.43,0000.05,-000.05,0000.47,0000.34,0000.24,16.8,23.3,03.0,02.0,0663.1,30.9
2021-06-11T02:56:00Z,00000200,00000000,0001.28,0000.42,0000.35,-000.17,-000.02,-000.04,0000.32,-000.16,0000.24,16.9,23.4,03.0,02.0,0663.2,30.9
2021-06-11T02:57:00Z,00000200,40000000,,,,,,,0000.24,0000.47,0000.49,17.0,23.4,03.3,02.2,0663.3,30.9
2021-06-11T02:58:00Z,00000200,60000000,,,,,,,-000.48,-000.11,-000.43,16.8,23.6,03.2,02.1,0662.2,30.9
2021-06-11T02:59:00Z,00000200,20000000,,,,,,,-000.05,-000.57,-000.17,16.8,23.7,03.1,02.0,0662.2,30.9
